Location: Unspecified
(0.0000°N, 0.0000°E)
Time: 14:59:29
(UTC+00:00)

Altair - Pass Details

Date: 08 February 2023
Orbit: 1501 x 1682 km, 47.2° (Epoch: 19 March)

Event Time Altitude Azimuth Distance (km) Brightness Sun altitude
Exits shadow 01:50:23 15° 104° (ESE) 3,531 9.6 -61.8°
Drops below altitude 10° 01:51:50 10° 110° (ESE) 3,892 9.9 -61.5°
Sets 01:55:21 0° 119° (ESE) 4,858 10.6 -60.8°
